loading
DOY 205 | 2024-07-23T03:17:02Z
Showing default

GGSE 3, 1292

Orbit data source: Space-Track

GGSE 3, 1292 is an American payload satellite in LEO that was launched on Tue, 09 Mar 1965 UTC via a Thor SLV-2 Agena D launch vehicle from the Air Force Western Test Range (AFWTR). Payloads include a variety of satellites, spacecraft, and rockets equipped with specific instruments for various scientific and technological missions. These include communications satellites like Starlink; space stations such as the ISS; scientific satellites like the Hubble; Earth observation satellites from companies like Planet Labs, Umbra, and HawkEye 360; GPS; miniature CubeSats for education and research; and military/defense satellites.

Loading next visibility...
Loading greatness...
GGSE 3 details
NORAD ID1292
COSPAR ID
1965-016C
Orbit
LEO
Last TLE update16 hours ago
Origin
Flag of USNRO/NRL (US)
ManufacturerNRL
BusNRL 24"
MotorUnknown
Mass59 kg wet, 59 kg dry
Launch date (UTC)
1965-03-09 (59 years ago)
Launch vehicle
Thor SLV-2 Agena D
Launch site
Air Force Western Test Range (AFWTR)
Object type
Payload
Rocket body
Debris
Radar Cross Section0.82 m², Medium (>0.1 m² and < 1m²)
Predictive object data (real-time)
Latitude-7.94468°
Longitude80.9724°
Altitude882.148 km
Speed7.417 km/s
Apparent Right ascension09h 37m 05s
Apparent Declination-38° 47' 60"
Sunlit
Object is in daylight
Predictive observer data (real-time)
Local Sidereal Time16:22:00
Azimuth243.374° WSW
Elevation-31.229°
Doppler factor1
Orbital elements
Apogee901.424 km
Perigee874.368 km
Semi-major axis7,266.033 km
Eccentricity0.0018618
Inclination70.0785°
RAAN4.7756°
Arg. of periapsis156.6444°
True anomaly203.46643°
Mean anomaly203.5515°
Mean motion3.50427 °/min
BSTAR0.0003093
Period102.73 mins
Definitive object data (Epoch: 2024-07-22T10:58:09.099Z)
Latitude
Longitude-100.45185°
Altitude904.599 km
Speed7.394 km/s
True Right ascension00h 19m 06s
True Declination0° 00' 00"
Sunlit
Object was in daylight at TLE epoch
TLE from 16 hours ago
0 GGSE 3
1 01292U 65016C   24204.45704976  .00000412  00000-0  30930-3 0  9991
2 01292  70.0785   4.7756 0018618 156.6444 203.5515 14.01135598 27238
Epoch: 2024-07-22T10:58Z
No data available

GGSE 3 Visibility forecast

Observer location: 39.9160978°, -105.1181434

GGSE 3 is not visible in the next 10 days
Span
Click to sort rows by Start time (UTC) header in descending order
Start Az.
Max El. time (UTC)
Max El. Az.
Max El.
End time (UTC)
End Az.